AirNav   TITAN Aviation Fuels
 
 1057 users online  

KSCA Sidney Municipal Airport
Sidney, Ohio, USA

GOING TO SIDNEY?


FAA INFORMATION EFFECTIVE 19 MAY 2022

Location

FAA Identifier: SCA
Lat/Long: 40-14-28.6000N 084-08-52.3000W
40-14.476667N 084-08.871667W
40.2412778,-84.1478611
(estimated)
Elevation: 1044 ft. / 318.2 m (surveyed)
Variation: 05W (1995)
From city: 3 miles S of SIDNEY, OH
Time zone: UTC -4 (UTC -5 during Standard Time)
Zip code: 45365

Airport Operations

Airport use: Open to the public
Activation date: 12/1956
Control tower: no
ARTCC: INDIANAPOLIS CENTER
FSS: DAYTON FLIGHT SERVICE STATION
NOTAMs facility: DAY (NOTAM-D service available)
Attendance: MON-SAT 0800-1800
Pattern altitude: 1844 ft. MSL
Wind indicator: lighted
Segmented circle: no
Lights: ACTVT REIL RWY 10 & 28; MIRL RWY 10/28 - CTAF. PAPI RWY 10 & 28 OPR CONSLY.
Beacon: white-green (lighted land airport)
Operates sunset to sunrise.

Airport Communications

CTAF/UNICOM: 123.05
WX AWOS-3: 120.425 (937-492-3683)
COLUMBUS APPROACH: 118.425
COLUMBUS DEPARTURE: 118.425
CLASS C: 118.425
IC: 118.425
WX AWOS-3PT at AXV (17 nm NW): 128.325 (419-753-2821)
WX AWOS-3 at EDJ (17 nm NE): 118.075 (937-599-4654)
WX AWOS-3PT at VES (18 nm W): 125.9 (937-526-3154)
WX AWOS-3 at I74 (19 nm E): 118.325 (937-484-5863)

Nearby radio navigation aids

VOR radial/distance  VOR name  Freq  Var
RODr245/5.5ROSEWOOD VORTAC117.5005W
DQNr041/17.7DAYTON VOR/DME114.5001W

Airport Services

Fuel available: 100LL JET-A+
100LL:100LL & JET A+ AVBL H24 VIA CREDIT CARD.
Parking: hangars and tiedowns
Airframe service: MAJOR
Powerplant service: MAJOR
Bottled oxygen: NONE
Bulk oxygen: HIGH

Runway Information

Runway 10/28

Dimensions: 5013 x 75 ft. / 1528 x 23 m
Surface: asphalt, in fair condition
Runway edge lights: medium intensity
RUNWAY 10  RUNWAY 28
Latitude: 40-14.562002N40-14.501402N
Longitude: 084-09.268428W084-08.193928W
Elevation: 1039.9 ft.1041.4 ft.
Traffic pattern: leftleft
Runway heading: 099 magnetic, 094 true279 magnetic, 274 true
Markings: nonprecision, in fair conditionnonprecision, in fair condition
Visual slope indicator: 2-light PAPI on left (3.00 degrees glide path)2-light PAPI on left (3.00 degrees glide path)
Runway end identifier lights: yesyes
Touchdown point: yes, no lightsyes, no lights
Obstructions: 7 ft. crops, 201 ft. from runway, 214 ft. left of centerline
7 FT CROPS, 0-200 FT DIST, 214 FT L.
14 ft. crops, 201 ft. from runway, 120 ft. left and right of centerline
14 FT CROPS ON HILL, 0-200 FT DIST, 80 FT L/R.

Runway 5/23

Dimensions: 2981 x 50 ft. / 909 x 15 m
Surface: asphalt, in fair condition
RUNWAY 5  RUNWAY 23
Latitude: 40-14.196817N40-14.573717N
Longitude: 084-09.310567W084-08.900017W
Elevation: 1034.8 ft.1040.5 ft.
Traffic pattern: leftleft
Runway heading: 045 magnetic, 040 true225 magnetic, 220 true
Markings: nonprecision, in good conditionnonprecision, in good condition
Runway end identifier lights: nono
Touchdown point: yes, no lightsyes, no lights
Obstructions: 75 ft. trees, 1552 ft. from runway, 127 ft. right of centerline, 18:1 slope to clear8 ft. crops, 201 ft. from runway, 125 ft. left and right of centerline
8 FT CROPS AT PAVEMENT END.

Airport Ownership and Management from official FAA records

Ownership: Publicly-owned
Owner: CITY OF SIDNEY
201 W POPLAR ST
SIDNEY, OH 45365-2720
Phone 937-498-2335
Manager: MIKE CHAPPIE
14833 SIDNEY-PLATTSVILLE RD
SIDNEY, OH 45365-8772
Phone 937-492-9794

Airport Operational Statistics

Aircraft based on the field: 34
Single engine airplanes: 28
Multi engine airplanes: 1
Jet airplanes: 5
    
Aircraft operations: avg 56/day *
72% local general aviation
27% transient general aviation
1% air taxi
<1% military
* for 12-month period ending 30 September 2021

Additional Remarks

FOR CD CTC COLUMBUS APCH AT 614-338-8537.

Instrument Procedures

NOTE: All procedures below are presented as PDF files. If you need a reader for these files, you should download the free Adobe Reader.

NOT FOR NAVIGATION. Please procure official charts for flight.
FAA instrument procedures published for use from 19 May 2022 at 0901Z to 16 June 2022 at 0900Z.

 
IAPs - Instrument Approach Procedures
RNAV (GPS) RWY 10   download (259KB)
RNAV (GPS) RWY 28   download (247KB)
VOR-A   download (194KB)
NOTE: Special Take-Off Minimums/Departure Procedures apply   download (187KB)

Other nearby airports with instrument procedures:

I17 - Piqua Airport/Hartzell Field (9 nm SW)
KAXV - Neil Armstrong Airport (17 nm NW)
KEDJ - Bellefontaine Regional Airport (17 nm NE)
KVES - Darke County Airport (18 nm W)
I74 - Grimes Field Airport (19 nm E)
 
Loc | Ops | Rwys | IFR | FBO | Links
Com | Nav | Svcs | Stats | Notes
Area around KSCA (Sidney Municipal Airport)
 
Road maps at: MapQuest Bing Google
 
Aerial photo
WARNING: Photo may not be current or correct
Aerial photo of KSCA (Sidney Municipal Airport)
Taken late September 2008

Do you have a better or more recent aerial photo of Sidney Municipal Airport that you would like to share? If so, please send us your photo.

 
Sectional chart

 
Airport distance calculator
Flying to Sidney Municipal Airport? Find the distance to fly.

From to KSCA

Sunrise and sunset
Times for 28-May-2022
 Local
(UTC-4)
 Zulu
(UTC)
Morning civil twilight05:4009:40
Sunrise06:1210:12
Sunset20:5600:56
Evening civil twilight21:2801:28

Current date and time
Zulu (UTC)  28-May-2022 17:05:16
Local (UTC-4)  28-May-2022 13:05:16
 
METAR
KAXV 
17nm NW 
281655Z AUTO 23004KT 10SM BKN014 BKN020 BKN060 17/14 A2996 RMK AO2
KEDJ 
17nm NE 
281655Z AUTO 31003KT 9SM FEW019 OVC029 19/15 A2997 RMK A01
KVES 
18nm W 
281630Z AUTO 24003KT 10SM OVC009 16/15 A2997 RMK AO2
KI74 
19nm E 
281655Z AUTO 13003KT 10SM SCT016 BKN021 OVC034 18/15 A2997 RMK AO2
KDAY 
21nm S 
281656Z 25003KT 10SM OVC013 18/14 A2998 RMK AO2 SLP148 T01830139
KFFO 
26nm S 
281656Z 00000KT 10SM OVC015 18/13 A2994 RMK AO2A SLP139 T01780131
KAOH 
28nm N 
281653Z AUTO 22004KT 10SM FEW021 OVC043 19/14 A2995 RMK AO2 SLP140 T01940139
KSGH 
30nm SE 
281656Z AUTO 28003KT 10SM OVC012 17/16 A2998 RMK AO2 SLPNO T01670161 PNO $
TAF
KDAY 
21nm S 
281140Z 2812/2912 29007KT P6SM OVC011 FM281700 26005KT P6SM BKN025 FM281900 23006KT P6SM SCT035 FM290100 17005KT P6SM FEW250
NOTAMs
Click for the latest NOTAMs
NOTAMs are issued by the DoD/FAA and will open in a separate window not controlled by AirNav.

 

 
 

FBO, Fuel Providers, and Aircraft Ground Support

  
 Business Name 
 
 Contact 
 
 Services / Description 
 
Fuel Prices
 
Comments
  
Aerotech Aviation LLC 937-492-9794
no information available

If you are affiliated with Aerotech Aviation LLC and would like to show here your services, contact info, web link, logo, and more, click here
100LL Jet A
SS $6.83 $6.38 
 Updated 17-May-2022
 
   write
SS=Self service
Update Fuel Prices
 

Would you like to see your business listed on this page?

 If your business provides an interesting product or service to pilots, flight crews, aircraft, or users of the Sidney Municipal Airport, you should consider listing it here.  To start the listing process, click on the button below
 
Add a business
 

Other Pages about Sidney Municipal Airport

www.cityofsidney.org/...
 
Update a link
 
Copyright © AirNav, LLC. All rights reserved. Privacy Policy  Contact